Location: Newark
(42.8481°N, 0.4872°E)
Time: 08:18:38
(UTC+00:00)

A-11 Canister half - Pass Details

Date: 05 November 2020
Orbit: 1516 x 1684 km, 47.2° (Epoch: 04 December)

Event Time Altitude Azimuth Distance (km) Brightness Sun altitude
Rises 19:34:26 0° 258° (WSW) 4,933 12.7 -31.4°
Reaches altitude 10° 19:37:38 10° 261° (W) 3,946 11.9 -31.9°
Maximum altitude 19:47:50 75° 347° (NNW) 1,720 9.1 -33.8°
Enters shadow 19:49:38 63° 46° (NE) 1,829 9.1 -34.1°
